Hourly Data Report for October 08, 2015

All times are specified in Local Standard Time (LST). Add 1 hour to adjust for Daylight Saving Time where and when it is observed.

CAPE DORSET A
NUNAVUT

64°13'49.000" N
76°31'30.000" W
48.20 m
2400637
71366
YTE

Download Data

Hourly Data (October 2015)
Hourly Data Report for October 8, 2015
Temp Definition
°C
Dew Point Temp Definition
°C
Rel Hum Definition
%
Wind Dir Definition
10's deg

Wind Spd Definition
km/h
Visibility Definition
km
Stn Press Definition
kPa
Hmdx Definition


Wind Chill Definition


Weather Definition


TIME
00:00 Legend Double Dagger -2.8 -5.0 85 31 22 16.1 99.58   -9 LegendNANA
01:00 Legend Double Dagger -3.3 -5.0 88 31 22 16.1 99.63   -10 LegendNANA
02:00 Legend Double Dagger -2.5 -4.5 87 33 30 16.1 99.66   -10 LegendNANA
03:00 Legend Double Dagger -2.7 -4.5 88 31 32 16.1 99.72   -10 LegendNANA
04:00 Legend Double Dagger -3.1 -5.7 82 31 32 16.1 99.78   -11 LegendNANA
05:00 Legend Double Dagger -3.5 -6.5 80 30 30 16.1 99.80   -11 LegendNANA
06:00 Legend Double Dagger -3.4 -6.2 81 30 24 16.1 99.86   -10 LegendNANA
07:00 Legend Double Dagger -3.5 -6.8 78 30 24 16.1 99.88   -10 LegendNANA
08:00 Legend Double Dagger -3.9 -7.0 79 31 24 16.1 99.93   -11 Snow
09:00 Legend Double Dagger -3.8 -7.0 79 30 17 16.1 99.96   -10 LegendNANA
10:00 Legend Double Dagger -3.6 -7.4 75 29 24 16.1 99.98   -10 LegendNANA
11:00 Legend Double Dagger -3.3 -7.8 71 30 24 16.1 100.01   -10 LegendNANA
12:00 Legend Double Dagger -3.3 -8.2 69 30 24 16.1 100.04   -10 LegendNANA
13:00 Legend Double Dagger -3.4 -8.2 70 31 24 16.1 100.06   -10 LegendNANA
14:00 Legend Double Dagger -3.0 -7.6 71 31 17 16.1 100.09   -9 LegendNANA
15:00 Legend Double Dagger -3.4 -8.0 71 32 15 16.1 100.11   -9 LegendNANA
16:00 Legend Double Dagger -3.6 -7.9 72 30 15 16.1 100.13   -9 LegendNANA
17:00 Legend Double Dagger -3.9 -8.2 72 32 13 16.1 100.13   -9 LegendNANA
18:00 Legend Double Dagger -4.0 -8.1 73 34 8 16.1 100.14   -7 LegendNANA
19:00 Legend Double Dagger -4.2 -8.2 74 34 8 16.1 100.14   -8 Snow
20:00 Legend Double Dagger -4.3 -7.9 76 2 11 16.1 100.11   -9 Snow
21:00 Legend Double Dagger -4.4 -7.7 78 2 15 16.1 100.08   -10 LegendNANA
22:00 Legend Double Dagger -4.6 -7.4 81 2 13 16.1 100.04   -10 LegendNANA
23:00 Legend Double Dagger -4.7 -7.6 80 1 11 16.1 100.00   -9 LegendNANA

Notes on Data Quality.

Legend

  • E = Estimated
  • M = Missing
  • NA = Not Available
  • ‡ = Partner data that is not subject to review by the National Climate Archives
Date modified: